Location: Newark
(30.1000°N, 109.4667°E)
Time: 21:12:25
(UTC+00:00)

A-11 Canister half - Pass Details

Date: 27 February 2020
Orbit: 1516 x 1683 km, 47.2° (Epoch: 09 April)

Event Time Altitude Azimuth Distance (km) Brightness Sun altitude
Rises 14:17:16 0° 308° (NW) 4,799 12.3 -47.3°
Reaches altitude 10° 14:20:25 10° 307° (NW) 3,789 11.5 -47.9°
Enters shadow 14:25:48 39° 299° (WNW) 2,204 9.9 -49.0°
